Date String (YYYY-MM-DD hh:mm:ss) UTC,Instrument flags,Ambient pressure (hPa),Sample flow (lpm),Bypass flow (lpm),Sample temperature (°C),Ambient temperature (°C),ASC tube jacket temperature (°C),LED temperature (°C),Box temperature (°C),Sample RH (%),Span deviation,Mass concentration (μg/m³),Mass concentration (μg/m³),Mass concentration (μg/m³)
DateTimeUTC,F1_M11,P_M11,Q1_M11,Q2_M11,T1_M11,T2_M11,T3_M11,T4_M11,T5_M11,U1_M11,ZSPAN_M11,X0_M11,X2_M11,X1_M11
2022-04-27 13:00:00,,0823.9,4.98,0.00,27.8,26.9,00.0,36.8,29.6,08.0,0009.9,0033.52,0012.32,0005.76
2022-04-27 13:01:00,,0823.9,5.01,0.00,27.8,26.9,00.0,36.8,29.6,08.1,0009.5,0033.06,0012.34,0005.77
2022-04-27 13:02:00,,0823.9,5.00,0.00,27.8,26.9,00.0,36.8,29.6,08.2,0008.4,0033.13,0012.37,0005.80
2022-04-27 13:03:00,,0823.9,4.99,0.00,27.8,26.9,00.0,36.8,29.6,08.3,0006.1,0034.22,0012.56,0005.82
2022-04-27 13:04:00,,0824.0,5.02,0.00,27.8,26.9,00.0,36.8,29.6,08.0,0004.8,0034.06,0012.53,0005.80
2022-04-27 13:05:00,,0824.0,5.00,0.00,27.8,26.9,00.0,36.8,29.6,08.3,0003.6,0034.71,0012.49,0005.77
2022-04-27 13:06:00,,0823.9,4.98,0.00,27.8,27.0,00.0,36.8,29.6,08.3,0002.5,0035.43,0012.46,0005.78
2022-04-27 13:07:00,,0824.0,5.02,0.00,27.8,27.0,00.0,36.8,29.6,08.4,0001.7,0036.10,0012.51,0005.79
2022-04-27 13:08:00,,0824.0,4.99,0.00,27.8,27.0,00.0,36.8,29.6,08.3,0001.9,0036.46,0012.56,0005.79
2022-04-27 13:09:00,,0824.0,5.01,0.00,27.8,27.0,00.0,36.8,29.6,08.3,0002.2,0035.32,0012.45,0005.80
2022-04-27 13:10:00,,0824.1,4.99,0.00,27.8,27.0,00.0,36.8,29.6,08.3,0002.5,0035.01,0012.30,0005.80
2022-04-27 13:11:00,,0824.1,5.00,0.00,27.9,27.0,00.0,36.8,29.6,08.3,0003.1,0034.69,0012.32,0005.81
2022-04-27 13:12:00,,0824.0,5.01,0.00,27.9,27.0,00.0,36.8,29.6,08.4,0003.2,0035.02,0012.30,0005.80
2022-04-27 13:13:00,,0824.1,4.99,0.00,27.9,27.0,00.0,36.8,29.7,08.3,0003.6,0034.72,0012.29,0005.78
2022-04-27 13:14:00,,0824.0,4.99,0.00,27.9,27.0,00.0,36.8,29.6,08.4,0003.6,0034.00,0012.26,0005.77
2022-04-27 13:15:00,,0824.1,5.02,0.00,27.9,27.0,00.0,36.8,29.6,08.1,0003.8,0033.55,0012.22,0005.79
2022-04-27 13:16:00,,0824.1,4.99,0.00,27.9,27.0,00.0,36.8,29.7,07.8,0004.3,0032.87,0012.12,0005.80
2022-04-27 13:17:00,,0824.0,5.00,0.00,27.9,27.0,00.0,36.8,29.7,07.5,0004.3,0032.11,0012.02,0005.79
2022-04-27 13:18:00,,0824.1,5.01,0.00,27.9,27.0,00.0,36.8,29.7,07.4,0004.4,0032.45,0012.08,0005.79
2022-04-27 13:19:00,,0824.1,4.99,0.00,27.9,27.0,00.0,36.8,29.7,07.3,0004.5,0033.93,0012.12,0005.81
2022-04-27 13:20:00,,0824.1,5.00,0.00,27.9,27.1,00.0,36.8,29.7,07.4,0004.6,0034.99,0012.24,0005.81
2022-04-27 13:21:00,,0824.1,5.01,0.00,27.9,27.1,00.0,36.8,29.7,07.9,0004.5,0035.37,0012.38,0005.82
2022-04-27 13:22:00,,0824.1,4.99,0.00,27.9,27.1,00.0,36.8,29.7,08.4,0004.3,0034.46,0012.28,0005.83
2022-04-27 13:23:00,,0824.1,5.00,0.00,27.9,27.1,00.0,36.8,29.7,08.7,0003.6,0033.90,0012.17,0005.83
2022-04-27 13:24:00,,0824.1,5.01,0.00,28.0,27.1,00.0,36.8,29.7,08.6,0002.7,0034.50,0012.25,0005.85
2022-04-27 13:25:00,,0824.1,4.99,0.00,28.0,27.1,00.0,36.9,29.7,08.6,0002.4,0035.50,0012.23,0005.86
2022-04-27 13:26:00,,0824.1,5.00,0.00,28.0,27.0,00.0,36.9,29.7,08.5,0002.6,0037.14,0012.29,0005.86
2022-04-27 13:27:00,,0824.2,5.02,0.00,28.0,27.0,00.0,36.9,29.7,08.5,0001.9,0038.23,0012.41,0005.86
2022-04-27 13:28:00,,0824.1,4.99,0.00,28.0,27.0,00.0,36.9,29.7,08.4,0000.8,0039.48,0012.51,0005.87
2022-04-27 13:29:00,,0824.2,5.01,0.00,28.0,27.1,00.0,36.9,29.7,08.5,-000.7,0038.96,0012.46,0005.86
2022-04-27 13:30:00,,0824.2,5.01,0.00,28.0,27.1,00.0,36.9,29.8,08.6,-001.4,0037.30,0012.36,0005.85
2022-04-27 13:31:00,,0824.2,4.99,0.00,28.0,27.1,00.0,36.9,29.8,08.5,-001.6,0036.92,0012.35,0005.86
2022-04-27 13:32:00,,0824.2,4.99,0.00,28.0,27.1,00.0,36.9,29.7,08.5,-001.3,0037.61,0012.46,0005.86
2022-04-27 13:33:00,,0824.2,5.01,0.00,28.0,27.1,00.0,36.9,29.7,08.7,-000.8,0038.10,0012.55,0005.84
2022-04-27 13:34:00,,0824.2,5.01,0.00,28.0,27.1,00.0,36.9,29.7,08.7,-000.6,0038.96,0012.54,0005.85
2022-04-27 13:35:00,,0824.3,4.99,0.00,28.0,27.1,00.0,36.9,29.7,08.5,-000.6,0038.61,0012.47,0005.83
2022-04-27 13:36:00,,0824.2,5.00,0.00,28.0,27.1,00.0,36.9,29.7,08.5,-000.5,0037.78,0012.34,0005.82
2022-04-27 13:37:00,,0824.3,5.01,0.00,28.0,27.0,00.0,36.9,29.7,08.4,0000.8,0036.06,0012.29,0005.85
2022-04-27 13:38:00,,0824.3,4.99,0.00,28.0,27.0,00.0,36.9,29.7,08.5,0001.0,0035.45,0012.35,0005.84
2022-04-27 13:39:00,,0824.3,5.02,0.00,28.0,27.1,00.0,36.9,29.7,08.6,0003.9,0033.32,0012.29,0005.84
2022-04-27 13:40:00,,0824.3,4.98,0.00,28.0,27.0,00.0,36.9,29.8,08.6,0002.6,0032.40,0012.22,0005.84
2022-04-27 13:41:00,,0824.3,5.01,0.00,28.0,27.0,00.0,36.9,29.8,08.7,0002.8,0032.82,0012.22,0005.84
2022-04-27 13:42:00,,0824.3,5.00,0.00,28.0,27.0,00.0,36.9,29.8,08.7,0001.8,0032.40,0012.08,0005.82
2022-04-27 13:43:00,,0824.3,5.00,0.00,28.0,27.1,00.0,36.9,29.8,08.7,0001.3,0032.03,0012.06,0005.80
2022-04-27 13:44:00,,0824.3,5.00,0.00,28.0,27.0,00.0,36.9,29.8,08.7,0000.6,0032.32,0012.10,0005.79
2022-04-27 13:45:00,,0824.3,5.01,0.00,28.0,27.1,00.0,36.9,29.8,08.7,-000.2,0031.55,0012.15,0005.79
2022-04-27 13:46:00,,0824.3,4.99,0.00,28.0,27.1,00.0,36.9,29.8,08.7,-000.5,0031.15,0012.12,0005.79
2022-04-27 13:47:00,,0824.3,5.01,0.00,28.0,27.1,00.0,36.9,29.8,08.7,-000.6,0031.33,0012.21,0005.79
2022-04-27 13:48:00,,0824.3,4.99,0.00,28.0,27.1,00.0,36.9,29.8,08.7,-001.4,0031.24,0012.17,0005.77
2022-04-27 13:49:00,,0824.2,5.00,0.00,28.0,27.1,00.0,36.9,29.8,08.5,-001.5,0030.27,0012.05,0005.74
2022-04-27 13:50:00,,0824.2,4.99,0.00,28.0,27.1,00.0,36.9,29.8,08.2,-001.3,0030.36,0012.01,0005.73
2022-04-27 13:51:00,,0824.3,4.98,0.00,28.0,27.1,00.0,36.9,29.8,08.0,-000.2,0030.62,0011.99,0005.72
2022-04-27 13:52:00,,0824.3,5.01,0.00,28.0,27.1,00.0,36.9,29.8,07.8,-000.6,0030.32,0012.02,0005.73
2022-04-27 13:53:00,,0824.3,4.99,0.00,28.0,27.1,00.0,37.0,29.8,07.9,-000.4,0030.74,0012.15,0005.74
2022-04-27 13:54:00,,0824.3,5.01,0.00,28.0,27.2,00.0,37.0,29.8,07.8,0000.3,0031.83,0012.06,0005.74
2022-04-27 13:55:00,,0824.3,4.98,0.00,28.0,27.2,00.0,37.0,29.8,07.8,0000.5,0032.85,0012.03,0005.77
2022-04-27 13:56:00,,0824.3,4.99,0.00,28.1,27.2,00.0,37.0,29.9,08.4,0001.4,0033.52,0012.09,0005.77
2022-04-27 13:57:00,,0824.3,5.01,0.00,28.1,27.2,00.0,37.0,29.8,08.8,0002.4,0034.05,0012.11,0005.79
2022-04-27 13:58:00,,0824.3,5.01,0.00,28.1,27.2,00.0,37.0,29.8,08.9,0002.5,0034.84,0012.17,0005.80
2022-04-27 13:59:00,,0824.3,4.99,0.00,28.1,27.2,00.0,37.0,29.8,08.9,0003.2,0035.41,0012.24,0005.81
